When you browse on this site, cookies collect data to enhance your experience and personalize the content and advertising you see.
Visit our Privacy Policy to learn more. By continuing to use the site, you agree to this use of cookies and data.
  • In Denmark
  • List of Countries
  • For 7 days
  • Water Temperature
  • Weather Map
  • Weather Widgets
  • user-avatar
    Login

    Hourly Weather Asadabad

    Today, 15 November, Friday

    Time Temperature Precipitation Wind Pressure Humidity
    00:00 +14°C° 0 mm 1 mps 660 mmHg 67%
    01:00 +14°C° 0 mm 1 mps 660 mmHg 68%
    02:00 +13°C° 0 mm 1 mps 659 mmHg 69%
    03:00 +13°C° 0.7 mm 1 mps 659 mmHg 74%
    04:00 +12°C° 0.7 mm 1 mps 659 mmHg 80%
    05:00 +12°C° 0 mm 1 mps 659 mmHg 85%
    06:00 +12°C° 1.4 mm 1 mps 659 mmHg 85%
    07:00 +12°C° 1.4 mm 1 mps 659 mmHg 85%
    08:00 +12°C° 1.4 mm 1 mps 659 mmHg 85%
    09:00 +10°C° 1.2 mm 2 mps 659 mmHg 86%
    10:00 +10°C° 1.2 mm 2 mps 659 mmHg 87%
    11:00 +10°C° 1.2 mm 2 mps 659 mmHg 88%
    12:00 +12°C° 0.3 mm 2 mps 659 mmHg 84%
    13:00 +12°C° 0.3 mm 2 mps 659 mmHg 80%
    14:00 +12°C° 0.3 mm 2 mps 659 mmHg 76%
    15:00 +13°C° 0 mm 2 mps 659 mmHg 75%
    16:00 +13°C° 0 mm 2 mps 659 mmHg 75%
    17:00 +13°C° 0 mm 1 mps 659 mmHg 75%
    18:00 +12°C° 0 mm 2 mps 659 mmHg 76%
    19:00 +12°C° 0 mm 2 mps 659 mmHg 76%
    20:00 +10°C° 0 mm 2 mps 659 mmHg 77%
    21:00 +12°C° 0 mm 2 mps 660 mmHg 74%
    22:00 +12°C° 0 mm 2 mps 660 mmHg 72%
    23:00 +12°C° 0 mm 2 mps 660 mmHg 69%

    Tomorrow, 16 November, Saturday

    Time Temperature Precipitation Wind Pressure Humidity
    00:00 +12°C° 0.1 mm 2 mps 660 mmHg 70%
    01:00 +12°C° 0.1 mm 2 mps 659 mmHg 70%
    02:00 +11°C° 0.1 mm 3 mps 659 mmHg 71%
    03:00 +12°C° 0.1 mm 2 mps 659 mmHg 72%
    04:00 +10°C° 0.1 mm 2 mps 659 mmHg 74%
    05:00 +10°C° 0.1 mm 2 mps 659 mmHg 76%
    06:00 +10°C° 0.3 mm 2 mps 659 mmHg 75%
    07:00 +10°C° 0.3 mm 2 mps 659 mmHg 75%
    08:00 +10°C° 0.3 mm 2 mps 660 mmHg 75%
    09:00 +12°C° 0.3 mm 2 mps 660 mmHg 72%
    10:00 +13°C° 0.3 mm 2 mps 660 mmHg 70%
    11:00 +14°C° 0.3 mm 2 mps 661 mmHg 67%
    12:00 +15°C° 0.1 mm 2 mps 660 mmHg 64%
    13:00 +15°C° 0.1 mm 1 mps 660 mmHg 61%
    14:00 +16°C° 0.1 mm 1 mps 660 mmHg 59%
    15:00 +15°C° 0.1 mm 1 mps 660 mmHg 62%
    16:00 +15°C° 0.1 mm 1 mps 660 mmHg 65%
    17:00 +14°C° 0.1 mm 1 mps 660 mmHg 68%
    18:00 +14°C° 0 mm 1 mps 660 mmHg 68%
    19:00 +13°C° 0 mm 2 mps 661 mmHg 68%
    20:00 +13°C° 0 mm 2 mps 661 mmHg 67%
    21:00 +12°C° 0 mm 2 mps 661 mmHg 65%
    22:00 +12°C° 0 mm 2 mps 661 mmHg 64%
    23:00 +12°C° 0 mm 2 mps 661 mmHg 62%

    Day after tomorrow, 17 November, Sunday

    Time Temperature Precipitation Wind Pressure Humidity
    00:00 +12°C° 0 mm 2 mps 661 mmHg 60%
    01:00 +12°C° 0 mm 2 mps 661 mmHg 59%
    02:00 +10°C° 0 mm 2 mps 661 mmHg 57%
    03:00 +10°C° 0 mm 3 mps 661 mmHg 56%
    04:00 +10°C° 0 mm 3 mps 660 mmHg 55%
    05:00 +10°C° 0 mm 3 mps 660 mmHg 55%
    06:00 +10°C° 0 mm 3 mps 661 mmHg 53%
    07:00 +11°C° 0 mm 3 mps 661 mmHg 52%
    08:00 +11°C° 0 mm 3 mps 662 mmHg 51%
    09:00 +14°C° 0 mm 2 mps 662 mmHg 45%
    10:00 +16°C° 0 mm 2 mps 662 mmHg 40%
    11:00 +19°C° 0 mm 1 mps 663 mmHg 35%
    12:00 +19°C° 0 mm 1 mps 662 mmHg 34%
    13:00 +20°C° 0 mm 1 mps 662 mmHg 33%
    14:00 +21°C° 0 mm 1 mps 661 mmHg 32%
    15:00 +19°C° 0 mm 1 mps 661 mmHg 38%
    16:00 +18°C° 0 mm 1 mps 660 mmHg 44%
    17:00 +16°C° 0 mm 1 mps 660 mmHg 50%
    18:00 +15°C° 0 mm 2 mps 660 mmHg 50%
    19:00 +14°C° 0 mm 2 mps 660 mmHg 49%
    20:00 +13°C° 0 mm 3 mps 660 mmHg 49%
    21:00 +12°C° 0 mm 3 mps 660 mmHg 47%
    22:00 +12°C° 0 mm 3 mps 660 mmHg 44%
    23:00 +12°C° 0 mm 3 mps 660 mmHg 42%

    18 November, Monday

    Time Temperature Precipitation Wind Pressure Humidity
    00:00 +12°C° 0 mm 3 mps 659 mmHg 40%
    01:00 +11°C° 0 mm 3 mps 659 mmHg 39%
    02:00 +11°C° 0 mm 3 mps 659 mmHg 37%
    03:00 +10°C° 0 mm 4 mps 659 mmHg 36%
    04:00 +10°C° 0 mm 4 mps 658 mmHg 35%
    05:00 +10°C° 0 mm 4 mps 658 mmHg 33%
    06:00 +10°C° 0 mm 4 mps 659 mmHg 33%
    07:00 +11°C° 0 mm 4 mps 659 mmHg 33%
    08:00 +11°C° 0 mm 4 mps 659 mmHg 32%
    09:00 +13°C° 0 mm 3 mps 660 mmHg 28%
    10:00 +16°C° 0 mm 2 mps 660 mmHg 24%
    11:00 +19°C° 0 mm 2 mps 661 mmHg 20%
    12:00 +20°C° 0 mm 1 mps 661 mmHg 19%
    13:00 +21°C° 0 mm 1 mps 660 mmHg 19%
    14:00 +22°C° 0 mm 1 mps 660 mmHg 19%
    15:00 +20°C° 0 mm 1 mps 659 mmHg 24%
    16:00 +18°C° 0 mm 1 mps 659 mmHg 30%
    17:00 +15°C° 0 mm 1 mps 658 mmHg 36%
    18:00 +15°C° 0 mm 1 mps 659 mmHg 35%
    19:00 +14°C° 0 mm 2 mps 659 mmHg 34%
    20:00 +14°C° 0 mm 2 mps 659 mmHg 33%
    21:00 +12°C° 0 mm 3 mps 659 mmHg 32%
    22:00 +12°C° 0 mm 3 mps 658 mmHg 30%
    23:00 +12°C° 0 mm 3 mps 658 mmHg 29%

    19 November, Tuesday

    Time Temperature Precipitation Wind Pressure Humidity
    00:00 +12°C° 0 mm 3 mps 658 mmHg 28%
    01:00 +11°C° 0 mm 3 mps 657 mmHg 27%
    02:00 +11°C° 0 mm 3 mps 657 mmHg 26%
    03:00 +11°C° 0 mm 3 mps 656 mmHg 26%
    04:00 +11°C° 0 mm 3 mps 656 mmHg 25%
    05:00 +10°C° 0 mm 3 mps 656 mmHg 25%
    06:00 +11°C° 0 mm 3 mps 656 mmHg 25%
    07:00 +11°C° 0 mm 3 mps 656 mmHg 26%
    08:00 +12°C° 0 mm 3 mps 657 mmHg 27%
    09:00 +14°C° 0 mm 3 mps 657 mmHg 23%
    10:00 +17°C° 0 mm 2 mps 658 mmHg 20%
    11:00 +19°C° 0 mm 2 mps 658 mmHg 16%
    12:00 +20°C° 0 mm 1 mps 658 mmHg 15%
    13:00 +21°C° 0 mm 1 mps 658 mmHg 15%
    14:00 +21°C° 0 mm 1 mps 658 mmHg 14%
    15:00 +20°C° 0 mm 1 mps 657 mmHg 20%
    16:00 +18°C° 0 mm 1 mps 657 mmHg 27%
    17:00 +14°C° 0 mm 0 mps 656 mmHg 33%
    18:00 +14°C° 0 mm 1 mps 656 mmHg 33%
    19:00 +14°C° 0 mm 1 mps 656 mmHg 33%
    20:00 +13°C° 0 mm 1 mps 657 mmHg 33%
    21:00 +13°C° 0 mm 1 mps 657 mmHg 32%
    22:00 +13°C° 0 mm 2 mps 657 mmHg 31%
    23:00 +13°C° 0 mm 2 mps 657 mmHg 31%

    20 November, Wednesday

    Time Temperature Precipitation Wind Pressure Humidity
    00:00 +12°C° 0 mm 2 mps 657 mmHg 30%
    01:00 +12°C° 0 mm 2 mps 656 mmHg 30%
    02:00 +12°C° 0 mm 2 mps 656 mmHg 30%
    03:00 +12°C° 0 mm 2 mps 656 mmHg 29%
    04:00 +11°C° 0 mm 3 mps 656 mmHg 28%
    05:00 +11°C° 0 mm 3 mps 656 mmHg 28%
    06:00 +12°C° 0 mm 2 mps 656 mmHg 28%
    07:00 +13°C° 0 mm 2 mps 657 mmHg 29%
    08:00 +13°C° 0 mm 2 mps 657 mmHg 30%
    09:00 +15°C° 0 mm 2 mps 658 mmHg 26%
    10:00 +16°C° 0 mm 2 mps 659 mmHg 23%
    11:00 +19°C° 0 mm 1 mps 659 mmHg 19%
    12:00 +19°C° 0 mm 1 mps 659 mmHg 20%
    13:00 +20°C° 0 mm 1 mps 659 mmHg 20%
    14:00 +20°C° 0 mm 1 mps 658 mmHg 21%
    15:00 +19°C° 0 mm 1 mps 658 mmHg 27%
    16:00 +18°C° 0 mm 1 mps 658 mmHg 32%
    17:00 +15°C° 0 mm 1 mps 658 mmHg 38%
    18:00 +15°C° 0 mm 1 mps 658 mmHg 40%
    19:00 +13°C° 0 mm 0 mps 658 mmHg 42%
    20:00 +12°C° 0 mm 0 mps 658 mmHg 43%
    21:00 +13°C° 0 mm 0 mps 658 mmHg 42%
    22:00 +14°C° 0 mm 1 mps 658 mmHg 40%
    23:00 +14°C° 0 mm 1 mps 659 mmHg 39%
    Show more